Tracking 19846 objects as of 18-Sep-2019
HD Live streaming from Space Station
objects crossing your sky now

BEIDOU 1B

Track BEIDOU 1B now!
BEIDOU 1B is classified as:


NORAD ID: 26643
Int'l Code: 2000-082A
Perigee: 35,733.7 km
Apogee: 36,430.2 km
Inclination: 9.1 °
Period: 1,450.8 minutes
Semi major axis: 42452 km
RCS: 0.1238 m2 (medium)
Launch date: December 20, 2000
Source: People's Republic of China (PRC)
Launch site: Xichang Space Center, China (XSC)

Space-bsaed navigation and positioning system to improve accuracy of weapons and situational awareness of military forces.
aabbcc
Your satellite tracking list
Your tracking list is empty




NASA's NSSDC Master Catalog

Two Line Element Set (TLE):
1 26643U 00082A   19261.06209142  .00000034  00000-0  00000+0 0  9990
2 26643   9.1345  42.8734 0082031  27.0068 343.9528  0.99252412 68394
Source of the keplerian elements: AFSPC